DW0435 San German PR US current weather conditions

sailwx.info

Wind from 154

Air temperature 26.1° C
Dewpoint 22.2° C

Last reported at 2020-Jan-22 22:00 UTC.
Time now 2020-Jan-22 22:43 UTC

Location: N 18°05' W 067°02'.
View on Google Maps.

See reports from other nearby stations

  
Tides and Currents Weather Stations Pressure Air Temp Water Temp Dewpoint Dewpoint Depression Visibility Wind Speed Wind Dir Waves Ship Positions
date/time (UTC)wind fromknots sea level pressurealtimeterstation pressurevisibilityair tempwater tempwave heightnotes
2020-Jan-22 22:00 154 26.1
2020-Jan-22 21:50 26.7
2020-Jan-22 21:45 157 26.7
2020-Jan-22 21:30 131 26.7
2020-Jan-22 21:20 26.7
2020-Jan-22 21:15 134 26.7
2020-Jan-22 21:00 136 26.7
2020-Jan-22 20:50 27.2
2020-Jan-22 20:47 119 27.2
2020-Jan-22 20:40 27.2
2020-Jan-22 20:32 117 27.2
2020-Jan-22 20:20 27.8
2020-Jan-22 20:16 105 27.8
2020-Jan-22 20:10 27.2
2020-Jan-22 20:01 122 27.2
2020-Jan-22 19:50 27.2
2020-Jan-22 19:46 161 27.2
2020-Jan-22 19:40 27.8
2020-Jan-22 19:31 136 27.8
2020-Jan-22 19:20 27.8
2020-Jan-22 19:17 131 27.8
2020-Jan-22 19:10 27.2
2020-Jan-22 19:02 125 27.2
2020-Jan-22 18:50 26.1
2020-Jan-22 18:47 149 26.1
2020-Jan-22 18:40 26.1
2020-Jan-22 18:32 140 26.7
2020-Jan-22 18:20 27.8
2020-Jan-22 18:16 115 27.8
2020-Jan-22 18:10 27.8
2020-Jan-22 18:02 136 27.8
2020-Jan-22 17:50 28.9
2020-Jan-22 17:46 161 28.9
2020-Jan-22 17:40 27.8
2020-Jan-22 17:32 175 27.8
2020-Jan-22 17:20 28.3
2020-Jan-22 17:17 184 28.3
2020-Jan-22 17:10 27.8
2020-Jan-22 17:02 229 27.8
2020-Jan-22 16:50 27.8
2020-Jan-22 16:46 110 27.8
2020-Jan-22 16:40 27.8
2020-Jan-22 16:31 144 27.8
2020-Jan-22 16:20 27.8
2020-Jan-22 16:16 142 27.8
2020-Jan-22 16:10 27.8
2020-Jan-22 16:01 108 27.8
2020-Jan-22 15:50 27.2
2020-Jan-22 15:46 193 27.2
2020-Jan-22 15:40 27.8
2020-Jan-22 15:32 163 27.2
2020-Jan-22 15:20 26.7
2020-Jan-22 15:16 082 26.7
2020-Jan-22 15:10 27.2
2020-Jan-22 15:00 130 27.2
2020-Jan-22 14:50 26.7
2020-Jan-22 14:45 159 26.7
2020-Jan-22 14:40 26.7
2020-Jan-22 14:31 113 26.7
2020-Jan-22 14:20 26.1
2020-Jan-22 14:16 161 26.1
2020-Jan-22 14:10 26.1
2020-Jan-22 14:00 138 26.1
2020-Jan-22 13:50 26.1
2020-Jan-22 13:45 138 26.1
2020-Jan-22 13:40 26.1
2020-Jan-22 13:30 103 26.1
2020-Jan-22 13:20 25.6
2020-Jan-22 13:15 071 25.0
2020-Jan-22 13:10 25.0
2020-Jan-22 13:00 136 25.0
2020-Jan-22 12:50 24.4
2020-Jan-22 12:45 120 23.9
2020-Jan-22 12:40 23.9
2020-Jan-22 12:30 134 23.9
2020-Jan-22 12:20 22.8
2020-Jan-22 12:16 128 22.8
2020-Jan-22 12:10 22.2
2020-Jan-22 12:02 120 22.2
2020-Jan-22 11:50 21.7
2020-Jan-22 11:48 142 21.7
2020-Jan-22 11:40 21.7
2020-Jan-22 11:31 142 21.7
2020-Jan-22 11:20 21.7
2020-Jan-22 11:16 142 21.7
2020-Jan-22 11:10 21.7
2020-Jan-22 11:01 142 21.7
2020-Jan-22 10:50 21.7
2020-Jan-22 10:47 142 21.7
2020-Jan-22 10:40 21.7
2020-Jan-22 10:31 142 21.7
2020-Jan-22 10:20 21.7
2020-Jan-22 10:17 142 21.7
2020-Jan-22 10:10 21.1
2020-Jan-22 10:01 142 21.1
2020-Jan-22 09:50 21.1
2020-Jan-22 09:46 142 21.7
2020-Jan-22 09:40 21.7
2020-Jan-22 09:31 143 21.7
2020-Jan-22 09:20 21.7
2020-Jan-22 09:16 143 21.7
2020-Jan-22 09:10 21.7
2020-Jan-22 09:00 143 21.7
2020-Jan-22 08:50 21.7
2020-Jan-22 08:46 143 21.7
2020-Jan-22 08:40 21.7
2020-Jan-22 08:31 143 21.7
2020-Jan-22 08:20 22.2
2020-Jan-22 08:15 143 22.2
2020-Jan-22 08:10 22.2
2020-Jan-22 08:00 143 22.2
2020-Jan-22 07:50 22.2
2020-Jan-22 07:46 143 22.2
2020-Jan-22 07:40 22.2
2020-Jan-22 07:31 143 22.2
2020-Jan-22 07:20 22.8
2020-Jan-22 07:15 143 22.8
2020-Jan-22 07:10 22.8
2020-Jan-22 07:00 145 22.2
2020-Jan-22 06:50 22.2
2020-Jan-22 06:45 144 22.2
2020-Jan-22 06:40 22.8
2020-Jan-22 06:30 144 22.8
2020-Jan-22 06:20 22.8
2020-Jan-22 06:16 144 22.8
2020-Jan-22 06:10 22.8
2020-Jan-22 06:00 144 23.3
2020-Jan-22 05:50 22.8
2020-Jan-22 05:45 111 22.2
2020-Jan-22 05:40 22.2
2020-Jan-22 05:35 22.2
2020-Jan-22 05:30 111 22.2
2020-Jan-22 05:15 22.2
2020-Jan-22 05:05 22.2
2020-Jan-22 05:03 152 22.2
2020-Jan-22 04:55 21.7
2020-Jan-22 04:47 139 21.7
2020-Jan-22 04:35 21.7
2020-Jan-22 04:31 139 21.7
2020-Jan-22 04:25 21.7
2020-Jan-22 04:17 139 21.7
2020-Jan-22 04:05 21.7
2020-Jan-22 04:02 139 21.7
2020-Jan-22 03:55 21.7
2020-Jan-22 03:46 139 21.7
2020-Jan-22 03:35 21.7
2020-Jan-22 03:32 139 21.7
2020-Jan-22 03:25 21.7
2020-Jan-22 03:17 139 21.7
2020-Jan-22 03:05 22.2
2020-Jan-22 03:02 139 22.2
2020-Jan-22 02:55 22.2
2020-Jan-22 02:46 139 22.2
2020-Jan-22 02:35 21.7
2020-Jan-22 02:31 139 21.7
2020-Jan-22 02:25 21.7
2020-Jan-22 02:16 139 22.2
2020-Jan-22 02:05 22.2
2020-Jan-22 01:55 22.8
2020-Jan-22 01:46 139 22.8
2020-Jan-22 01:35 23.3
2020-Jan-22 01:32 139 23.3
2020-Jan-22 01:25 23.3
2020-Jan-22 01:16 139 23.9
2020-Jan-22 01:05 23.3
2020-Jan-22 01:01 139 23.3
2020-Jan-22 00:55 23.3
2020-Jan-22 00:46 139 23.3
2020-Jan-22 00:35 23.3
2020-Jan-22 00:33 139 23.3
2020-Jan-22 00:25 23.3
2020-Jan-22 00:16 139 23.3
2020-Jan-22 00:05 23.9
2020-Jan-22 00:00 139 23.9
2020-Jan-21 23:55 23.9
2020-Jan-21 23:45 139 24.4
2020-Jan-21 23:35 24.4
2020-Jan-21 23:31 139 24.4
2020-Jan-21 23:25 24.4
2020-Jan-21 23:16 146 24.4
2020-Jan-21 23:05 25.6
2020-Jan-21 23:01 141 25.6
2020-Jan-21 22:55 25.6
2020-Jan-21 22:47 153 25.6
2020-Jan-21 22:35 26.1
2020-Jan-21 22:30 132 26.1
2020-Jan-21 22:25 26.1
2020-Jan-21 22:15 161 26.1
2020-Jan-21 22:05 26.7
2020-Jan-21 22:00 136 26.7
2020-Jan-21 21:55 26.7
2020-Jan-21 21:46 153 26.7
2020-Jan-21 21:35 27.2
2020-Jan-21 21:32 156 27.2
2020-Jan-21 21:25 27.2
2020-Jan-21 21:16 105 27.2
2020-Jan-21 21:05 27.8
2020-Jan-21 21:00 140 27.8
2020-Jan-21 20:55 27.8
2020-Jan-21 20:45 162 27.8
2020-Jan-21 20:35 28.3
2020-Jan-21 20:30 132 28.3
2020-Jan-21 20:25 28.3
2020-Jan-21 20:16 127 28.3
2020-Jan-21 20:05 28.3
2020-Jan-21 20:00 132 28.3
2020-Jan-21 19:55 28.3
2020-Jan-21 19:45 103 28.9
2020-Jan-21 19:35 28.9
2020-Jan-21 19:30 168 28.3
2020-Jan-21 19:25 28.9
2020-Jan-21 19:16 143 29.4
2020-Jan-21 19:05 29.4
2020-Jan-21 19:00 196 28.9
2020-Jan-21 18:55 29.4
2020-Jan-21 18:45 223 29.4
2020-Jan-21 18:35 29.4
2020-Jan-21 18:30 180 28.9
2020-Jan-21 18:15 189 28.9
2020-Jan-21 18:05 28.9
2020-Jan-21 18:00 158 28.9
2020-Jan-21 17:45 139 28.9
2020-Jan-21 17:35 28.9
2020-Jan-21 17:30 143 28.3
2020-Jan-21 17:25 28.9
2020-Jan-21 17:15 28.3
2020-Jan-21 17:05 28.3
2020-Jan-21 17:00 128 28.9
2020-Jan-21 16:45 142 29.4
2020-Jan-21 16:35 196 29.4
2020-Jan-21 16:25 28.9
2020-Jan-21 16:18 155 28.9
2020-Jan-21 16:05 28.9
2020-Jan-21 15:55 28.3
2020-Jan-21 15:46 112 28.3
2020-Jan-21 15:35 28.3
2020-Jan-21 15:32 164 28.3
2020-Jan-21 15:25 28.3
2020-Jan-21 15:17 138 28.3
2020-Jan-21 15:05 28.3
2020-Jan-21 15:01 146 28.3
2020-Jan-21 14:55 27.8
2020-Jan-21 14:46 142 27.8
2020-Jan-21 14:35 27.2
2020-Jan-21 14:31 082 27.8
2020-Jan-21 14:25 26.7
2020-Jan-21 14:16 125 26.7
2020-Jan-21 14:05 27.2
2020-Jan-21 14:01 127 27.2
2020-Jan-21 13:55 26.7
2020-Jan-21 13:46 121 27.2
2020-Jan-21 13:35 26.7
2020-Jan-21 13:30 135 26.7
2020-Jan-21 13:25 26.7
2020-Jan-21 13:20 26.1
2020-Jan-21 13:16 121 26.1
2020-Jan-21 13:10 26.1
2020-Jan-21 13:00 113 26.1
2020-Jan-21 12:50 25.6
2020-Jan-21 12:45 121 25.6
2020-Jan-21 12:40 25.6
2020-Jan-21 12:30 136 25.0
2020-Jan-21 12:20 25.0
2020-Jan-21 12:15 153 24.4
2020-Jan-21 12:00 134 24.4
2020-Jan-21 11:50 23.9
2020-Jan-21 11:45 135 23.9
2020-Jan-21 11:31 126 23.9
2020-Jan-21 11:20 23.3
2020-Jan-21 11:17 144 23.3
2020-Jan-21 11:10 23.3
2020-Jan-21 11:01 142 23.3
2020-Jan-21 10:50 23.3
2020-Jan-21 10:46 136 23.3
2020-Jan-21 10:40 22.2
2020-Jan-21 10:32 123 21.7
2020-Jan-21 10:20 21.7
2020-Jan-21 10:16 142 21.7
2020-Jan-21 10:10 21.7
2020-Jan-21 10:01 142 21.7
2020-Jan-21 09:50 22.2
2020-Jan-21 09:47 142 22.2
2020-Jan-21 09:40 22.2
2020-Jan-21 09:31 142 22.2
2020-Jan-21 09:20 22.2
2020-Jan-21 09:18 142 22.2
2020-Jan-21 09:10 22.2
2020-Jan-21 09:00 142 22.2
2020-Jan-21 08:50 22.8
2020-Jan-21 08:46 142 23.3
2020-Jan-21 08:40 23.3
2020-Jan-21 08:31 137 23.3
2020-Jan-21 08:20 23.3
2020-Jan-21 08:16 132 23.3
2020-Jan-21 08:10 23.3
2020-Jan-21 08:00 132 23.3
2020-Jan-21 07:50 23.3
2020-Jan-21 07:46 126 23.3
2020-Jan-21 07:40 23.3
2020-Jan-21 07:30 126 23.3
2020-Jan-21 07:20 23.3
2020-Jan-21 07:15 142 23.3
2020-Jan-21 07:10 23.9
2020-Jan-21 07:00 142 23.9
2020-Jan-21 06:50 23.9
2020-Jan-21 06:45 149 23.9
2020-Jan-21 06:40 23.9
2020-Jan-21 06:30 117 23.3
2020-Jan-21 06:20 23.3
2020-Jan-21 06:15 143 23.3
2020-Jan-21 06:10 23.3
2020-Jan-21 06:00 121 23.3
2020-Jan-21 05:50 23.3
2020-Jan-21 05:45 123 23.3
2020-Jan-21 05:40 23.3
2020-Jan-21 05:30 122 23.3
2020-Jan-21 05:20 23.3
2020-Jan-21 05:15 132 23.3
2020-Jan-21 05:05 23.9
2020-Jan-21 05:03 125 23.9
2020-Jan-21 04:55 23.9
2020-Jan-21 04:47 140 23.9
2020-Jan-21 04:35 23.9
2020-Jan-21 04:31 130 23.9
2020-Jan-21 04:25 23.9
2020-Jan-21 04:16 121 23.9
2020-Jan-21 04:05 23.9
2020-Jan-21 04:01 149 23.9
2020-Jan-21 03:55 24.4
2020-Jan-21 03:47 130 25.0
2020-Jan-21 03:35 25.0
2020-Jan-21 03:31 130 25.0
2020-Jan-21 03:25 25.0
2020-Jan-21 03:18 140 25.0
2020-Jan-21 03:05 25.0
2020-Jan-21 03:01 130 25.0
2020-Jan-21 02:55 25.0
2020-Jan-21 02:46 160 24.4
2020-Jan-21 02:35 24.4
2020-Jan-21 02:32 137 25.0
2020-Jan-21 02:25 25.0
2020-Jan-21 02:16 140 25.0
2020-Jan-21 02:05 25.0
2020-Jan-21 02:02 123 25.0
2020-Jan-21 01:55 25.0
2020-Jan-21 01:48 103 25.0
2020-Jan-21 01:35 25.0
2020-Jan-21 01:31 132 24.4
2020-Jan-21 01:25 24.4
2020-Jan-21 01:15 127 24.4
2020-Jan-21 01:05 25.0
2020-Jan-21 01:01 129 24.4
2020-Jan-21 00:55 25.0
2020-Jan-21 00:46 129 25.0
2020-Jan-21 00:35 25.0
2020-Jan-21 00:31 144 25.0
2020-Jan-21 00:25 25.0
2020-Jan-21 00:16 135 25.6
2020-Jan-21 00:05 25.6
2020-Jan-21 00:01 140 25.6
2020-Jan-20 23:55 25.6
2020-Jan-20 23:46 173 25.6
2020-Jan-20 23:35 25.6
2020-Jan-20 23:31 148 25.6
2020-Jan-20 23:25 25.6
2020-Jan-20 23:15 144 26.1
2020-Jan-20 23:05 26.1
2020-Jan-20 23:02 158 26.1
2020-Jan-20 22:55 26.1
2020-Jan-20 22:46 114 26.1
2020-Jan-20 22:35 26.7
2020-Jan-20 22:25 26.7
2020-Jan-20 22:15 134 26.7
2020-Jan-20 22:05 27.2
2020-Jan-20 22:00 166 27.2